Regional Weather Roundup
Issued by NWS

Home | Current Version | Previous Version | Graphics & Text | Print | Product List | Glossary On
Versions: 1 2 3 4 5 6 7 8 9 10 11 12 13 14 15 16 17 18 19 20 21 22 23 24 25 26 27
000
ASUS45 KBOU 272007
RWRCO

WEATHER ROUNDUP FOR COLORADO
NATIONAL WEATHER SERVICE DENVER/BOULDER CO
200 PM MDT MON MAR 27 2017

NOTE: "FAIR" INDICATES FEW OR NO CLOUDS BELOW 12000 FEET WITH NO
SIGNIFICANT WEATHER AND/OR OBSTRUCTIONS TO VISIBILITY.

COZ001>005-013-030-031-272100-
...NORTHWEST COLORADO...

CITY           SKY/WX    TMP DP  RH WIND       PRES   REMARKS
CRAIG          CLOUDY    53  24  32 CALM      29.83F
HAYDEN         PTSUNNY   52  25  35 W3        29.85F
MEEKER         PTSUNNY   57  21  24 S17G24    29.82F
MOUNT WERNER   NOT AVBL
STEAMBOAT SPGS CLOUDY    51  26  37 NW6       29.85F
WALDEN         NOT AVBL
$$

COZ006>008-011-272100-
...WEST CENTRAL VALLEYS...

CITY           SKY/WX    TMP DP  RH WIND       PRES   REMARKS
GRAND JUNCTION CLOUDY    60  27  28 SW9G21    29.81F
MONTROSE       PTSUNNY   57  23  26 MISG      29.85F
EAGLE          PTSUNNY   55  18  22 SW15G21   29.85F
RIFLE          PTSUNNY   59  23  25 NW12      29.81F
DELTA          PTSUNNY   62  22  21 N3        29.84F
NUCLA          CLOUDY    55  27  33 W17G23    29.89F
$$

COZ017>023-064>068-272100-
...SOUTHWEST COLORADO...

CITY           SKY/WX    TMP DP  RH WIND       PRES   REMARKS
DURANGO        CLOUDY    55  20  25 S12G17    29.91F
CORTEZ         PTSUNNY   60  25  26 SW15      29.88F
PAGOSA SPRINGS PTSUNNY   52  20  28 SW9       29.95F
TELLURIDE      CLOUDY    42  24  49 S14G22    29.97F
WOLF CREEK PAS FAIR      30  23  74 SW18G35   30.07F WCI  18
$$

COZ009-010-012-014-032>034-037-058>063-272100-
...CENTRAL COLORADO...

CITY           SKY/WX    TMP DP  RH WIND       PRES   REMARKS
ASPEN          CLOUDY    50  19  29 VRB5      29.85F
BUENA VISTA    PTSUNNY   56  20  24 SE20G25   29.87F
COPPER MTN     CLOUDY    34  18  51 S5        30.01S WCI  30
BERTHOUD PASS  LGT SNOW  23  12  63 SE14      30.02F VSB 1   WCI  11
COTTONWOOD PAS CLOUDY    48   9  20 SW12G20   29.94F
GUNNISON       FAIR      48  20  32 VRB5      29.90F
KREMMLING      CLOUDY    55  23  28 SE6G12    29.87F
LEADVILLE      CLOUDY    40  13  33 W5        29.92F
MONARCH PASS   CLOUDY    32  21  64 SW23G32   30.11F WCI  19
SALIDA         CLOUDY    55  23  29 S21G33    29.94F
SUNLIGHT       PTSUNNY   36  19  51 S9G18     29.99F
WILKERSON PASS CLOUDY    36  23  60 S5        30.02F
$$

COZ069>075-272100-
...SAN LUIS VALLEY/SANGRE DE CRISTO MOUNTAINS...

CITY           SKY/WX    TMP DP  RH WIND       PRES   REMARKS
ALAMOSA        FAIR      56  23  27 S16G26    29.89F
LA VETA PASS   NOT AVBL
SAGUACHE       CLOUDY    54  25  32 SE10G18   29.92F
$$

COZ035-036-038>040-272100-
...NORTHERN COLORADO FRONT RANGE...

CITY           SKY/WX    TMP DP  RH WIND       PRES   REMARKS
DENVER INTL AP PTSUNNY   62  28  27 SE13G23   29.83F
DMNS CITY PARK   N/A     62  25  24 S5G13     29.82F
AURORA         PTSUNNY   61  26  27 SE14      29.84F
FRONT RANGE AP PTSUNNY   63  30  29 SE16G23   29.85F
ERIE MUNI ARPT FAIR      61  28  28 SE8       29.84F
BOULDER MUN AP PTSUNNY   59  34  38 N5        29.84F
CENTENNIAL     PTSUNNY   60  28  29 S10G21    29.84F
BROOMFIELD     NOT AVBL
FORT COLLINS   FAIR      60  29  30 VRB5      29.85F
LONGMONT       CLOUDY    63  35  36 W5        29.86F
$$

COZ041-046-047-076>085-087-088-272100-
...PIKES PEAK/PALMER DIVIDE AND SOUTHERN FOOTHILLS...

CITY           SKY/WX    TMP DP  RH WIND       PRES   REMARKS
COLO. SPRINGS  PTSUNNY   55  29  36 S16       29.89F
A. F. ACADEMY  NOT AVBL
SCHRIEVER AFB  FAIR      55  29  38 S15G26    29.90F
ELLICOTT       NOT AVBL
FALCON         FAIR      55  28  35 S15G29    29.92F
FORT CARSON    CLOUDY    56  33  41 S10       29.88F
LIMON          FAIR      57  35  43 S17G26    29.89F
MONUMENT HILL  CLOUDY    52  32  46 S17G25    29.90F
TRINIDAD       FAIR      61  30  31 S6        29.86F
$$

COZ042>045-048>051-090-091-272100-
...NORTHEAST COLORADO...

CITY           SKY/WX    TMP DP  RH WIND       PRES   REMARKS
GREELEY ARPT   FAIR      64  30  27 SE9       29.84F
AKRON          PTSUNNY   61  31  32 SE18      29.87F
BURLINGTON     FAIR      62  40  44 S10G20    29.89F
WRAY           NOT AVBL
STERLING       FAIR      64  34  32 SE9       29.84F
HOLYOKE        FAIR      66  34  30 E8        29.87F
FORT MORGAN    FAIR      65  28  24 S10       29.85F
$$

COZ086-089-092>099-272100-
...SOUTHEAST COLORADO...

CITY           SKY/WX    TMP DP  RH WIND       PRES   REMARKS
PUEBLO         FAIR      62  34  35 SE14      29.85F
LA JUNTA       FAIR      67  33  28 S12G20    29.84F
LAMAR          FAIR      66  35  31 E13G23    29.85F
SPRINGFIELD      N/A     63  34  33 S12G24    29.88F
$$




USA.gov is the U.S. government's official web portal to all federal, state and local government web resources and services.